La Porte, IN

10:48 PM CST on February 12, 2016 (GMT -0600)
La Porte Municipal

Weather History for KPPO - January, 2014

Change the Weather History Date:

Thursday, January 30, 2014

  Actual Average (KVPZ) Record (KVPZ)
Temperature  
Mean Temperature 23 °F 24 °F  
Max Temperature 32 °F 32 °F 53 °F (2013)
Min Temperature 14 °F 16 °F -7 °F (2004)
Degree Days  
Heating Degree Days 42 41  
Month to date heating degree days 1245  
Since 1 July heating degree days 3647  
Cooling Degree Days 0 0  
Month to date cooling degree days 0  
Year to date cooling degree days 0  
Moisture  
Dew Point 14 °F    
Average Humidity 66    
Maximum Humidity 87    
Minimum Humidity 53    
Precipitation  
Precipitation 0.00 in 0.06 in 0.80 in (2002)
Month to date precipitation 1.69  
Year to date precipitation 1.69  
Sea Level Pressure  
Sea Level Pressure 29.88 in    
Wind  
Wind Speed 13 mph (SSW)    
Max Wind Speed 23 mph    
Max Gust Speed 37 mph    
Visibility 9 miles    
Events Snow    
T = Trace of Precipitation, MM = Missing Value Source: NWS Daily Summary

Daily Weather History Graph

Daily Weather History Graph

Search for Another Location

Airport or City:

Trip Planner

Search our weather history database for the weather conditions in past years. The results will help you decide how hot, cold, wet, or windy it might be!

Date:

Astronomy

Jan. 30, 2014 Rise Set
Actual Time 7:00 AM CST 5:00 PM CST
Civil Twilight 6:31 AM CST 5:29 PM CST
Nautical Twilight 5:57 AM CST 6:03 PM CST
Astronomical Twilight 5:25 AM CST 6:35 PM CST
Moon 6:25 AM CST (1/30) 5:12 PM CST (1/30)
Length of Visible Light 10h 58m
Length of Day
9h 59m
Waning Crescent, 0% of the Moon is Illuminated
Jan 30
Waning Crescent
Jan 30
New
Feb 6
First Quarter
Feb 14
Full
Feb 22
Last Quarter

Hourly Weather History & Observations

Time (CST) Temp. Windchill Dew Point Humidity Pressure Visibility Wind Dir Wind Speed Gust Speed Precip Events Conditions
12:15 AM 15.1 °F 4.2 °F 3.2 °F 59% 30.07 in 10.0 mi South 8.1 mph - N/A   Mostly Cloudy
12:35 AM 15.1 °F 2.5 °F 3.2 °F 59% 30.06 in 10.0 mi South 10.4 mph - N/A   Scattered Clouds
12:55 AM 14.9 °F 4.0 °F 3.0 °F 59% 30.06 in 10.0 mi South 8.1 mph - N/A   Scattered Clouds
1:15 AM 14.9 °F 1.6 °F 3.2 °F 60% 30.06 in 10.0 mi South 11.5 mph - N/A   Mostly Cloudy
1:35 AM 14.9 °F 1.6 °F 3.2 °F 60% 30.05 in 10.0 mi South 11.5 mph - N/A   Mostly Cloudy
1:55 AM 14.9 °F -0.3 °F 3.4 °F 60% 30.04 in 10.0 mi South 15.0 mph 18.4 mph N/A   Mostly Cloudy
2:15 AM 14.9 °F 2.3 °F 3.6 °F 61% 30.04 in 10.0 mi South 10.4 mph 16.1 mph N/A   Mostly Cloudy
2:35 AM 14.7 °F 1.4 °F 3.7 °F 62% 30.04 in 10.0 mi South 11.5 mph 17.3 mph N/A   Mostly Cloudy
2:55 AM 14.9 °F 1.6 °F 3.7 °F 61% 30.03 in 10.0 mi South 11.5 mph - N/A   Mostly Cloudy
3:15 AM 14.9 °F 1.6 °F 3.9 °F 62% 30.03 in 10.0 mi South 11.5 mph - N/A   Mostly Cloudy
3:35 AM 15.4 °F 2.3 °F 4.1 °F 61% 30.02 in 10.0 mi South 11.5 mph 18.4 mph N/A   Scattered Clouds
3:55 AM 15.3 °F 2.8 °F 4.3 °F 62% 30.02 in 10.0 mi South 10.4 mph - N/A   Scattered Clouds
4:15 AM 15.3 °F 1.4 °F 4.5 °F 62% 30.02 in 10.0 mi South 12.7 mph 17.3 mph N/A   Scattered Clouds
4:35 AM 15.4 °F 3.0 °F 4.5 °F 62% 30.02 in 10.0 mi South 10.4 mph - N/A   Scattered Clouds
4:55 AM 15.8 °F 3.4 °F 4.6 °F 61% 30.00 in 10.0 mi South 10.4 mph 18.4 mph N/A   Scattered Clouds
5:15 AM 16.2 °F 1.9 °F 4.8 °F 61% 30.00 in 10.0 mi SSW 13.8 mph 18.4 mph N/A   Scattered Clouds
5:35 AM 16.3 °F 1.0 °F 4.8 °F 61% 29.98 in 10.0 mi South 16.1 mph 21.9 mph N/A   Scattered Clouds
5:55 AM 16.7 °F 1.5 °F 5.0 °F 60% 29.98 in 10.0 mi South 16.1 mph 21.9 mph N/A   Scattered Clouds
6:15 AM 16.7 °F 1.0 °F 5.0 °F 60% 29.97 in 10.0 mi South 17.3 mph 21.9 mph N/A   Scattered Clouds
6:35 AM 17.2 °F 3.3 °F 5.0 °F 59% 29.98 in 10.0 mi South 13.8 mph 20.7 mph N/A   Clear
6:55 AM 17.6 °F 3.7 °F 5.7 °F 60% 29.98 in 10.0 mi South 13.8 mph 19.6 mph N/A   Clear
7:15 AM 18.1 °F 3.9 °F 6.1 °F 59% 29.97 in 10.0 mi South 15.0 mph 21.9 mph N/A   Clear
7:35 AM 18.3 °F 3.6 °F 6.6 °F 60% 29.96 in 10.0 mi South 16.1 mph 23.0 mph N/A   Clear
7:55 AM 18.9 °F 4.3 °F 6.8 °F 59% 29.95 in 10.0 mi South 16.1 mph 23.0 mph N/A   Clear
8:15 AM 19.2 °F 4.7 °F 7.3 °F 60% 29.96 in 10.0 mi South 16.1 mph 21.9 mph N/A   Clear
8:35 AM 19.9 °F 5.7 °F 7.7 °F 59% 29.94 in 10.0 mi South 16.1 mph 27.6 mph N/A   Clear
8:55 AM 20.3 °F 6.1 °F 8.1 °F 59% 29.95 in 10.0 mi South 16.1 mph 25.3 mph N/A   Clear
9:15 AM 20.7 °F 6.6 °F 8.4 °F 59% 29.93 in 10.0 mi South 16.1 mph 26.5 mph N/A   Clear
9:35 AM 21.4 °F 8.0 °F 8.8 °F 58% 29.92 in 10.0 mi South 15.0 mph 23.0 mph N/A   Clear
9:55 AM 22.1 °F 8.9 °F 9.5 °F 58% 29.90 in 10.0 mi South 15.0 mph 25.3 mph N/A   Clear
10:15 AM 23.0 °F 9.6 °F 9.9 °F 57% 29.90 in 10.0 mi South 16.1 mph 24.2 mph N/A   Clear
10:35 AM 23.7 °F 9.3 °F 10.4 °F 57% 29.88 in 10.0 mi South 19.6 mph 26.5 mph N/A   Scattered Clouds
10:55 AM 24.6 °F 10.9 °F 10.4 °F 55% 29.86 in 10.0 mi South 18.4 mph 31.1 mph N/A   Scattered Clouds
11:15 AM 25.7 °F 13.5 °F 11.3 °F 55% 29.84 in 10.0 mi South 15.0 mph 25.3 mph N/A   Scattered Clouds
11:35 AM 25.9 °F 12.5 °F 11.3 °F 54% 29.82 in 10.0 mi South 18.4 mph 25.3 mph N/A   Scattered Clouds
11:55 AM 26.4 °F 14.5 °F 11.8 °F 54% 29.80 in 10.0 mi South 15.0 mph 24.2 mph N/A   Clear
12:15 PM 27.0 °F 13.2 °F 12.4 °F 54% 29.77 in 10.0 mi South 20.7 mph 29.9 mph N/A   Clear
12:35 PM 27.5 °F 13.2 °F 12.7 °F 54% 29.74 in 7.0 mi South 23.0 mph 29.9 mph N/A   Clear
12:55 PM 27.5 °F 13.5 °F 13.3 °F 55% 29.72 in 7.0 mi South 21.9 mph 31.1 mph N/A   Clear
1:15 PM 28.0 °F 13.9 °F 12.9 °F 53% 29.72 in 7.0 mi South 23.0 mph 31.1 mph N/A   Clear
1:35 PM 27.7 °F 14.1 °F 12.7 °F 54% 29.71 in 7.0 mi South 20.7 mph 29.9 mph N/A   Clear
1:55 PM 27.9 °F 15.9 °F 13.3 °F 54% 29.73 in 10.0 mi SSW 16.1 mph 26.5 mph N/A   Scattered Clouds
2:15 PM 28.0 °F 14.9 °F 13.6 °F 55% 29.74 in 10.0 mi SSW 19.6 mph 26.5 mph N/A   Clear
2:35 PM 28.2 °F 17.2 °F 14.2 °F 56% 29.73 in 10.0 mi SSW 13.8 mph 24.2 mph N/A   Mostly Cloudy
2:55 PM 28.4 °F 17.5 °F 14.5 °F 56% 29.74 in 10.0 mi SSW 13.8 mph 26.5 mph N/A   Mostly Cloudy
3:15 PM 28.8 °F 15.9 °F 14.5 °F 55% 29.75 in 10.0 mi SW 19.6 mph 29.9 mph N/A   Overcast
3:35 PM 28.8 °F 15.9 °F 14.7 °F 56% 29.75 in 10.0 mi SW 19.6 mph 28.8 mph N/A   Overcast
3:55 PM 28.8 °F 15.2 °F 16.3 °F 60% 29.76 in 4.0 mi SW 21.9 mph 36.8 mph N/A Snow Light Snow
4:15 PM 28.4 °F 15.1 °F 19.2 °F 69% 29.77 in 4.0 mi SW 20.7 mph 28.8 mph N/A Snow Light Snow
4:35 PM 28.0 °F 14.6 °F 20.7 °F 74% 29.78 in 5.0 mi SW 20.7 mph 26.5 mph N/A Snow Light Snow
4:55 PM 27.5 °F 15.4 °F 22.3 °F 81% 29.78 in 5.0 mi SW 16.1 mph 26.5 mph N/A   Overcast
5:15 PM 27.5 °F 15.9 °F 23.7 °F 86% 29.79 in 5.0 mi SW 15.0 mph 21.9 mph N/A Snow Light Snow
5:35 PM 28.2 °F 15.5 °F 24.6 °F 86% 29.79 in 5.0 mi SW 18.4 mph 26.5 mph N/A   Overcast
5:55 PM 28.4 °F 15.1 °F 24.8 °F 86% 29.80 in 5.0 mi SW 20.7 mph 27.6 mph N/A   Overcast
6:15 PM 28.8 °F 15.9 °F 24.8 °F 85% 29.80 in 7.0 mi SW 19.6 mph 26.5 mph N/A   Overcast
6:35 PM 28.8 °F 17.0 °F 24.8 °F 85% 29.81 in 10.0 mi SW 16.1 mph 26.5 mph N/A   Overcast
6:55 PM 28.8 °F 17.0 °F 24.8 °F 85% 29.81 in 10.0 mi SW 16.1 mph 24.2 mph N/A   Overcast
7:15 PM 28.8 °F 17.9 °F 24.8 °F 85% 29.82 in 10.0 mi SW 13.8 mph 21.9 mph N/A   Overcast
7:35 PM 28.9 °F 17.7 °F 25.5 °F 87% 29.82 in 10.0 mi SW 15.0 mph - N/A   Overcast
7:55 PM 29.3 °F 18.2 °F 25.7 °F 86% 29.83 in 10.0 mi SW 15.0 mph - N/A   Overcast
8:15 PM 30.0 °F 20.0 °F 25.7 °F 84% 29.83 in 10.0 mi SW 12.7 mph 18.4 mph N/A   Overcast
8:35 PM 30.2 °F 20.8 °F 25.7 °F 83% 29.83 in 10.0 mi SW 11.5 mph - N/A   Overcast
8:55 PM 30.4 °F 21.0 °F 25.7 °F 83% 29.83 in 10.0 mi SW 11.5 mph - N/A   Overcast
9:15 PM 30.9 °F 22.8 °F 25.9 °F 82% 29.84 in 10.0 mi SW 9.2 mph 17.3 mph N/A   Overcast
9:35 PM 31.3 °F 22.7 °F 26.2 °F 82% 29.85 in 10.0 mi SW 10.4 mph - N/A   Overcast
9:55 PM 31.6 °F 22.6 °F 26.2 °F 80% 29.85 in 10.0 mi SW 11.5 mph - N/A   Overcast
10:15 PM 32.0 °F 23.6 °F 26.6 °F 80% 29.85 in 10.0 mi SW 10.4 mph - N/A   Overcast
10:35 PM 32.0 °F 24.2 °F 26.6 °F 80% 29.86 in 10.0 mi SW 9.2 mph - N/A   Overcast
10:55 PM 31.6 °F 23.7 °F 26.4 °F 81% 29.86 in 10.0 mi SW 9.2 mph - N/A   Overcast
11:15 PM 31.8 °F 23.9 °F 26.6 °F 81% 29.87 in 10.0 mi SW 9.2 mph - N/A   Overcast
11:35 PM 32.0 °F 23.6 °F 26.6 °F 80% 29.87 in 10.0 mi WSW 10.4 mph - N/A   Overcast
11:55 PM 32.0 °F 23.0 °F 26.2 °F 79% 29.88 in 10.0 mi WSW 11.5 mph 17.3 mph N/A   Overcast